Regional Weather Roundup
Issued by NWS

Home | Current Version | Previous Version | Text Only | Print | Product List | Glossary On
Versions: 1 2 3 4 5 6 7 8 9 10 11 12 13 14 15 16 17 18 19 20 21 22 23 24 25 26 27 28 29 30 31 32 33 34 35 36 37 38 39 40 41 42 43 44 45 46 47 48 49 50
000
ASUS44 KFWD 281310
RWRTX
NORTH TEXAS HOURLY WEATHER ROUNDUP
NATIONAL WEATHER SERVICE FORT WORTH TX
800 AM CDT FRI JUL 28 2017

NOTE: "FAIR" INDICATES FEW OR NO CLOUDS BELOW 12,000 FEET WITH NO
SIGNIFICANT WEATHER AND/OR OBSTRUCTIONS TO VISIBILITY.

TXZ118-119-281400-
DALLAS/FORT WORTH METROPLEX

CITY           SKY/WX    TMP DP  RH WIND       PRES   REMARKS
DFW AIRPORT    CLOUDY    84  69  60 SW10      29.92R
DALLAS LOVE    CLOUDY    83  69  62 SW7       29.94R
FTW MEACHAM    PTSUNNY   82  69  64 S7        29.93R
DAL-EXECUTIVE  CLOUDY    83  68  60 VRB6      29.94R
FTW-ALLIANCE   CLOUDY    81  69  67 SW5       29.93R
FTW-NAS-JRB    PTSUNNY   83  67  58 SW7       29.94R
FTW-SPINKS     SUNNY     81  66  61 S7        29.96R
ARLINGTON      CLOUDY    79  72  79 SE3       29.95R
GRAND PRAIRIE  SUNNY     81  68  65 S5        29.96R
ADDISON        PTSUNNY   82  68  61 SW7       29.95R
MESQUITE       SUNNY     75  72  88 S3        29.95R
LANCASTER      CLOUDY    77  70  77 CALM      29.95S
$$

TXZ091>094-102>105-117-120-121-131>134-281400-
NORTH CENTRAL TEXAS

CITY           SKY/WX    TMP DP  RH WIND       PRES   REMARKS
SHRMAN/DENISON CLOUDY    80  70  70 S8        29.94S
GAINESVILLE    CLOUDY    74  69  84 SE3       29.95S
BOWIE          SUNNY     80  67  66 SW5       29.95R
BRIDGEPORT     CLOUDY    79  66  63 SW5       29.95S
DECATUR        CLOUDY    81  66  61 SW8       29.95S
DENTON         CLOUDY    78  71  79 S6        29.93R
MCKINNEY       CLOUDY    83  71  67 SW7       29.94R
BONHAM         CLOUDY    81  72  74 CALM      29.93S
GREENVILLE     CLOUDY    82  72  69 S6        29.94S
ROCKWALL       CLOUDY    79  70  73 S10       29.94S
TERRELL        CLOUDY    79  70  74 S6        29.95R
WAXAHACHIE     CLOUDY    78  69  73 S5        29.97R
CLEBURNE       MOSUNNY   79  70  73 S6        29.98S
GRANBURY       MOSUNNY   82  67  59 SW3       29.97S
$$

TXZ083>090-098>101-113>116-127>130-139>142-154-155-281400-
WESTERN NORTH TEXAS

CITY           SKY/WX    TMP DP  RH WIND       PRES   REMARKS
WICHITA FALLS  MOSUNNY   79  63  57 SW13      29.93R
WF-KICKAPOO    SUNNY     80  64  58 CALM      29.96S
VERNON         MOSUNNY   77  67  70 SW5       29.95R
ABILENE        SUNNY     79  64  60 S9        30.00S
ABILENE-DYESS  SUNNY     80  64  57 S9        29.98S
GRAHAM         SUNNY     79  65  61 S3        29.96R
BRECKENRIDGE   SUNNY     82  64  54 SW5       29.97R
CISCO          SUNNY     79  66  65 SW9       30.00S
EASTLAND       SUNNY     77  66  69 S5        29.99S
RANGER         SUNNY     76  66  71 SW6       30.00R
MINERAL WELLS  MOSUNNY   75  67  76 SE5       29.95R
STEPHENVILLE   SUNNY     76  66  71 CALM      30.02R
COMANCHE       SUNNY     79  67  65 SW12      30.00R
BROWNWOOD      SUNNY     75  66  73 CALM      30.01S
COLEMAN        SUNNY     77  64  65 S3        30.02R
$$

TXZ143>147-156>162-174-175-281400-
CENTRAL TEXAS

CITY           SKY/WX    TMP DP  RH WIND       PRES   REMARKS
WACO           SUNNY     80  70  71 S10       29.97R
WACO-TSTC      SUNNY     77  70  78 S5        29.97R
WACO-MCGREGOR  SUNNY     79  70  74 S7        29.97S
HILLSBORO      MOSUNNY   78  70  74 S7        29.97S
CORSICANA      MOSUNNY   79  71  76 S8        29.97S
MEXIA          SUNNY     77  71  82 SW8G20    29.97S
HEARNE         MOSUNNY   77  75  93 SE5       30.00S
CAMERON        SUNNY     78  73  85 SW5       29.99R
TEMPLE         SUNNY     77  70  79 S6        29.99R
KILLEEN        SUNNY     81  68  65 S6        29.99R
KILLEEN-SKYLRK SUNNY     78  69  73 SW7       29.99S
FORT HOOD      SUNNY    N/A N/A N/A SW8       29.96R
HAMILTON       SUNNY     79  66  64 SW9       30.01S
LAMPASAS       SUNNY     78  70  76 SW3       29.99S
$$

TXZ095>097-106>112-122>126-135>138-148>153-164>167-281400-
EAST TEXAS

CITY           SKY/WX    TMP DP  RH WIND       PRES   REMARKS
PARIS          CLOUDY    81  72  74 SW7       29.94R
SULPHUR SPRNGS MOSUNNY   82  71  69 SW9       29.96S
MOUNT PLEASANT MOSUNNY   83  70  63 SW10      29.95S
GILMER         CLOUDY    79  72  77 S6        29.95S
MINEOLA        CLOUDY    81  72  74 SW7       29.95S
TYLER          CLOUDY    80  72  76 SW9       29.96R
LONGVIEW       PTSUNNY   81  75  82 SW8       29.95R
MARSHALL         N/A     78  71  79 SW6       29.97S
ATHENS         PTSUNNY   77  70  78 S3        29.96S
PALESTINE      SUNNY     77  74  92 S3        29.99S
JACKSONVILLE   MOSUNNY   76  74  94 SW7       30.01R
HENDERSON      CLOUDY    80  73  78 SW8       29.98S
CENTER         SUNNY     82  78  88 SW6       29.99R FOG     HX  92
NACOGDOCHES    MOSUNNY   79  73  83 SW8       29.96S
LUFKIN         SUNNY     78  75  90 SW8       29.98S
$$

SUPPLEMENTAL OBSERVATIONS (NWS FORT WORTH AREA)

CITY           SKY/WX    TMP DP  RH WIND       PRES   REMARKS
CADDO GRASSLND   N/A     81  72  74 CALM        N/A
PAT MAYSE LAKE   N/A     81  75  83 S6          N/A
LBJ GRASSLAND    N/A     81  68  65 SW5         N/A
POSSUM KINGDOM   N/A     81  64  57 S8          N/A
GRANBURY         N/A     84  66  54 SW6         N/A
MCGREGOR         N/A     81  68  65 S5          N/A
TEMPLE           N/A     77  70  78 S1          N/A
$$

SUPPLEMENTAL OBSERVATIONS (NWS NORMAN AREA)

CITY           SKY/WX    TMP DP  RH WIND       PRES   REMARKS
GOODLETT         N/A     77  68  73 NW6       29.98S
ODELL            N/A     77  73  86 NW6       29.97R
CROWELL          N/A     79  66  64 W5        29.98R
KNOX CITY        N/A     76  61  58 SW2       29.99R
SEYMOUR          N/A     80  60  51 SW7       29.97S
MILLERS CREEK    N/A     81  64  57 SW5         N/A
$$

SUPPLEMENTAL OBSERVATIONS (NWS SAN ANGELO AREA)

CITY           SKY/WX    TMP DP  RH WIND       PRES   REMARKS
WEINERT          N/A     77  62  60 SW3       29.99R
HASKELL          N/A     77  59  53 SW6       29.99R
THROCKMORTON     N/A     78  65  62 SW7       29.98S
STAMFORD         N/A     79  63  59 S6        29.99S
CLYDE            N/A     77  64  64 S7        30.03S
HAMBY            N/A     82  63  51 S9          N/A
IVIE RESERVOIR   N/A     82  68  61 W1          N/A
COLORADO BEND    N/A     79  66  65 CALM        N/A
$$

SUPPLEMENTAL OBSERVATIONS (NWS SHREVEPORT AREA)

CITY           SKY/WX    TMP DP  RH WIND       PRES   REMARKS
CLARKSVILLE      N/A     82  70  65 CALM        N/A
TEXARKANA        N/A     81  77  89 S1          N/A
LINDEN           N/A     82  72  69 SW5         N/A
GILMER           N/A     81  72  74 SW7         N/A
HENDERSON        N/A     82  77  83 SW8         N/A  HX  91
LUFKIN           N/A     81  77  89 MISG        N/A
N SABINE NF      N/A     79  75  89 MISG        N/A
S SABINE NF      N/A     81  77  89 SW5         N/A
$$

SUPPLEMENTAL OBSERVATIONS ARE A COLLECTION OF AUTOMATED INSTRUMENTS
THAT ARE MAINTAINED BY A VARIETY OF FEDERAL AND STATE AGENCIES.
CERTAIN ELEMENTS...SUCH AS HUMIDITY VALUES AND SUSTAINED WIND
SPEEDS...MAY BE APPROXIMATED.





USA.gov is the U.S. government's official web portal to all federal, state and local government web resources and services.